Location: Kuppenheim
(48.8299°N, 8.2568°E)
Time: 08:57:39
(UTC+00:00)

ATLAS 5 CENTAUR R/B - Pass Details

Date: 20 June 2021
Orbit: 510 x 1148 km, 63.4° (Epoch: 28 July)

Event Time Altitude Azimuth Distance (km) Brightness Sun altitude
Exits shadow 00:47:52 20° 153° (SSE) 1,294 2.8 -15.6°
Maximum altitude 00:49:29 26° 117° (ESE) 1,123 2.8 -15.5°
Drops below altitude 10° 00:53:04 10° 61° (ENE) 1,950 4.8 -15.3°
Sets 00:55:45 0° 49° (NE) 2,958 6.2 -15.2°
